www.pogodaiklimat.ru

Погода и климат >> Архив погоды >> Россия >> Красноярский край >> Красноярск


АРХИВ ПОГОДЫ в Красноярске

Время (UTC), дата Ветер
(напр.,м/с)
 
Видим.   Явления Облачность Т
(С)
Тd
(С)
f
(%)
Тe
(С)
Тes
(С)
Комфортность P
(гПа)
Po
(гПа)
Тmin
(С)
Tmax
(С)
R
(мм)
R24
(мм)
S
(см)
12 13.05 С 1 50 км в посл. час крупа 8/5 600 м
[Cb cap Ac cuf Ci ing]
+5.6 -6.8 40 +5 +6 очень
холодно
1011.9 978.3 +6.2 0.6
15 13.05 СЗ 1 4000 м 7 баллов +2.4 -3.9 63 +1 +1 очень
холодно
1014.0 980.0
18 13.05 З 1 4000 м 2 балла -0.5 -5.3 70 -2 -2 очень
холодно
1015.7 981.3
21 13.05 З 2 4000 м 10 баллов +0.4 -3.0 78 -3 -3 очень
холодно
1015.6 981.3
00 14.05 З 1 20 км {ливн. осадки} 9/1 600 м
[Cb cap Ac lent Cc]
+1.7 -2.4 74 0 +1 холодно 1014.8 980.6 -0.6 0.0
03 14.05 З 2 20 км 9 баллов +4.2 -2.0 64 +2 +3 холодно 1015.1 981.3
06 14.05 З 1 50 км в посл. час крупа 9 баллов +3.8 -1.8 67 +3 +4 очень
холодно
1015.1 981.3
09 14.05 ЮЗ 2 50 км 9 баллов +5.7 -2.4 56 +4 +5 очень
холодно
1014.9 981.3
12 14.05 В 1 50 км в посл. час ливневой снег 10/6 600 м
[Cb cap Cs]
+2.4 +1.4 93 +1 +1 очень
холодно
1014.3 980.3 +7.5 0.6
15 14.05 ЮЗ 2 4000 м 6 баллов +1.4 -1.2 83 -2 -2 очень
холодно
1014.1 980.0
18 14.05 ЮВ 1 4000 м 4 балла -1.1 -1.9 94 -3 -3 очень
холодно
1013.1 978.7
21 14.05 штиль 0 10 км 4 балла -3.4 -4.2 94 -5 -5 очень
холодно
1013.4 978.7
00 15.05 штиль 0 10 км 5/0
[Ci fib]
-0.7 -2.2 90 -2 +1 очень
холодно
1010.9 976.7 -3.7
03 15.05 СВ 1 50 км 9 баллов +5.5 -1.9 59 +5 +6 прохладно 1010.8 977.3
06 15.05 С 1 50 км 9 баллов +6.8 -3.2 49 +6 +8 очень
холодно
1010.6 977.3
09 15.05 З 2 50 км 9 баллов +8.7 -5.5 36 +8 +9 холодно 1010.4 977.3
12 15.05 СВ 1 50 км 9/5 600 м
[Cb cap Ci sp]
+9.0 -5.2 36 +9 +10 холодно 1010.5 977.4 +10.0 0.0
15 15.05 З 1 50 км 9 баллов +4.6 -4.2 53 +4 +4 холодно 1015.0 981.3
18 15.05 З 1 4000 м 9 баллов +3.8 -3.0 61 +3 +3 прохладно 1016.6 982.7
21 15.05 З 2 50 км 6 баллов +2.6 -3.5 64 -0 -0 холодно 1016.7 982.7
00 16.05 З 1 50 км 8/5 600 м
[Cb cap Ci fib]
+6.2 -3.0 52 +6 +7 по сезону 1016.3 982.7 +2.3
03 16.05 ЮЗ 2 50 км в посл. час крупа 9 баллов +7.5 -2.5 49 +6 +7 прохладно 1017.5 984.0
06 16.05 З 3
{11}
50 км {ливн. осадки} 9/6 600 м
[Cb cap Cc]
+10.7 -3.8 36 +9 +13 прохладно 1016.2 983.1
09 16.05 З 3 50 км 7 баллов +10.6 -2.1 41 +9 +11 холодно 1017.1 984.0
12 16.05 СЗ 2 50 км {ливн. осадки} 9/3 600 м
[Cb cap Ci fib]
+9.9 -6.2 32 +9 +10 холодно 1017.3 984.0 +12.0 0.0
15 16.05 З 2 20 км 9 баллов +3.7 -6.0 49 +2 +2 очень
холодно
1020.8 986.7
18 16.05 ЮЗ 1 4000 м 9 баллов +6.2 -4.8 45 +6 +6 по сезону 1020.4 986.7
21 16.05 З 1 20 км 9 баллов +4.0 -5.5 50 +3 +3 прохладно 1020.7 986.7
00 17.05 З 2 50 км 9/3 600 м
[Cb cap Ac lent Cc]
+4.8 -4.3 52 +3 +4 прохладно 1020.6 986.6 +3.2
03 17.05 СЗ 2-10
{10}
50 км 10/8 600 м
[Cb cap Cs]
+8.8 -6.5 33 +8 +9 по сезону 1020.3 986.8
06 17.05 С 2 50 км 10 баллов +10.3 -4.9 34 +10 +10 прохладно 1021.3 988.0
09 17.05 СЗ 2 50 км 10 баллов +10.1 -6.3 31 +9 +9 холодно 1021.3 988.0
12 17.05 В 1 50 км 10/8 600 м
[Cb cap Cs]
+10.4 -4.4 35 +11 +11 прохладно 1020.2 986.9 +12.1
15 17.05 ЮЗ 2 20 км 10 баллов +5.1 -5.3 47 +3 +3 очень
холодно
1023.3 989.3
18 17.05 ЮЗ 2
{10}
4000 м в посл. час ливневой дождь 9/6 600 м
[Cb cap Ac trans Ci fib]
+4.5 +0.3 74 +2 +2 холодно 1023.2 989.2
21 17.05 ЮЗ 3 20 км 10 баллов +5.2 -1.9 60 +2 +2 прохладно 1023.2 989.3
00 18.05 ЮЗ 4 20 км 4/0 2000 м
[Ac trans Ci fib]
+6.1 -2.9 52 +3 +4 прохладно 1023.1 989.3 +3.6 0.0
03 18.05 ЮЗ 2 50 км 9 баллов +10.8 -1.9 41 +10 +11 по сезону 1024.0 990.7
06 18.05 ЮЗ 2 50 км 9 баллов +12.0 -3.0 35 +12 +13 по сезону 1021.1 988.0
09 18.05 ЮЗ 3 50 км 9 баллов +13.9 -3.4 30 +13 +14 по сезону 1019.5 986.7
12 18.05 Ю 1 50 км 10/3 600 м
[Cb cap Ac trans Cs]
+12.8 -3.7 31 +13 +14 по сезону 1017.4 984.4 +14.6
15 18.05 ЮЗ 1 50 км 10 баллов +6.9 -4.5 44 +7 +7 прохладно 1017.6 984.0
18 18.05 ЮЗ 1 4000 м 10 баллов +5.3 -4.0 51 +5 +5 по сезону 1016.4 982.7
21 18.05 ЮЗ 1 20 км 10 баллов +2.7 -4.3 60 +2 +2 холодно 1016.7 982.7
00 19.05 штиль 0 20 км 10/0 2000 м
[Ac lent Cs]
+5.8 -1.2 61 +5 +7 по сезону 1014.5 980.8 +1.9
03 19.05 ЮВ 1 50 км 10 баллов +15.1 +1.6 40 +16 +16 тепло 1012.4 980.0
06 19.05 ЮЗ 4 50 км 10 баллов +20.1 -1.1 24 +20 +20 тепло 1010.5 978.7
09 19.05 ЮЗ 2 50 км 10 баллов +22.1 -0.6 22 +21 +21 комфорт 1007.5 976.0
12 19.05 Ю 2 50 км 10/0 2000 м
[Ac lent Cs]
+23.0 +0.6 23 +22 +23 комфорт 1005.4 974.1 +23.8
15 19.05 Ю 2 50 км 7 баллов +15.1 -1.9 31 +15 +15 тепло 1007.0 974.7
18 19.05 ЮЗ 2 4000 м 6 баллов +14.5 +0.7 39 +14 +14 тепло 1007.0 974.7
21 19.05 ЮЗ 2 50 км 4 балла +16.0 +2.4 40 +16 +16 тепло 1006.8 974.7
00 20.05 З 1 50 км 9/6 600 м
[Cb cap Ac trans Ci fib]
+17.7 +3.9 40 +19 +20 тепло 1005.6 973.7 +13.0
03 20.05 ЮЗ 2 20 км в посл. час ливневой дождь 10/6 600 м
[Cb cap Ac As]
+14.7 +8.1 65 +14 +16 тепло 1006.8 974.5 +12.1
06 20.05 Ю 2
{11}
50 км {ливн. осадки} 9/5 600 м
[Cb cap Ac trans Cc]
+20.0 +10.0 53 +22 +26 комфорт 1005.0 973.3
09 20.05 ЮЗ 4 50 км 9 баллов +21.5 +8.7 44 +23 +23 комфорт 1004.7 973.3

 

Местоположение метеостанции Красноярск (Красноярский край, Россия): широта 56.03 долгота 92.75 высота над уровнем моря 276 м.

В архиве по умолчанию представлена погода в Красноярске за последнюю неделю. Архивные данные за месяц целиком и за предыдущие месяцы, начиная с января 2011 года, Вы можете получить, выбрав интересующий диапазон дат из раскрывающегося списка и нажав кнопку "Ввод!".


*Определитесь, кто Вы:
робот инопланетянин человек

Внимание! Время в таблицах - всемирное. Для получения местного времени необходимо прибавить поправку, которая равна 7 ч.

Смотрите также архив погоды в соседних городах и на ближайших метеорологических станциях:

Погода в Минино (Красноярский край, Россия) (5 км)
Погода в Роевом Ручье (Красноярский край, Россия) (7 км)
Погода в Емельяново (Красноярский край, Россия) (22 км)
Погода в Шумихе (Красноярский край, Россия) (29 км)
Погода в Каче (Красноярский край, Россия) (36 км)
Погода в Погорельском Бору (Красноярский край, Россия) (40 км)
Погода в Железногорске (Красноярский край, Россия) (54 км)
Погода в Сухобузимском (Красноярский край, Россия) (62 км)
Погода в Кемчуге (Красноярский край, Россия) (68 км)
Погода в Шалинском (Красноярский край, Россия) (71 км)

Пояснения к столбцам:

Ветер - указаны скорость ветра в м/с - средняя за 10 мин, порывы в срок и между сроками (в фигурных скобках) и направление, откуда дует ветер: С - северный, СВ - северо-восточный, В - восточный, ЮВ - юго-восточный, Ю - южный, ЮЗ - юго-западный, З - западный, СЗ - северо-западный.
Видимость - горизонтальная дальность видимости в метрах или километрах. При видимости от 1 до 10 км при отсутствии осадков обычно наблюдается дымка, при ухудшении видимости до 1 км и менее - туман. В сухую погоду видимость может ухудшаться дымом, пылью или мглою.
Явления - указаны атмосферные явления, наблюдавшиеся в срок или в последний час перед сроком; фигурными скобками обозначены явления, наблюдавшиеся между сроками (за 1-3 часа до срока); квадратными скобками обозначены град или гололедные отложения с указанием их диаметра в мм.
Облачность - указаны через наклонную черту общая и нижняя облачность в баллах и высота нижней границы облаков в метрах; квадратными скобками обозначены формы облаков: Ci - перистые, Cs - перисто-слоистые, Cc - перисто-кучевые, Ac - высококучевые, As - высокослоистые, Sc - слоисто-кучевые, Ns - слоисто-дождевые, Cu - кучевые, Cb - кучево-дождевые. Подробнее классификацию облаков см. в Атласе облаков (PDF).
T - Температура воздуха - температура, измеренная на высоте 2 м над землей.
Td - Температура точки росы - температура, при понижении до которой содержащийся в воздухе водяной пар достигнет насыщения.
f - Относительная влажность воздуха - влажноcть воздуха, измеренная на высоте 2 м над землей.
Te - Эффективная температура - температура, которую ощущает одетый по сезону человек в тени. Характеристика душности погоды. При расчете учитывается влияние влажности воздуха и скорости ветра на теплоощущения человека.
Tes - Эффективная температура на солнце - температура, которую ощущает человек, с поправкой на солнечный нагрев. Характеристика знойности погоды. Зависит от высоты солнца над горизонтом, облачности и скорости ветра. Ночью, в пасмурную погоду, а также при ветре 12 м/с и более поправка равна нулю.
P - Атмосферное давление - приведенное к уровню моря атмосферное давление.
Po - Атмосферное давление - измеренное на уровне метеостанции атмосферное давление.
Tmin - Минимальная температура - минимум температуры воздуха на высоте 2 м над землей.
Tmax - Максимальная температура - максимум температуры воздуха на высоте 2 м над землей.
R - Количество осадков - Количество выпавших осадков за период времени, мм. При наведении курсора мыши на число - период времени, за который выпало указанное количество осадков.
R24 - Количество осадков - Количество выпавших осадков за 24 часа, мм.
S - Снежный покров - Высота снежного покрова, см. При наведении курсора мыши на число - состояние снежного покрова и степень покрытия местности в баллах.